Time,TemperatureF,DewpointF,PressureIn,WindDirection,WindDirectionDegrees,WindSpeedMPH,WindSpeedGustMPH,Humidity,HourlyPrecipIn,Conditions,Clouds,dailyrainin,SolarRadiationWatts/m^2,SoftwareType,DateUTC
2013-05-29 00:01:00,52.0,48.0,-100.00,NW,305,3.0,5.0,86,0.00,,,0.26,0.000000,,2013-05-29 06:01:00,
2013-05-29 00:11:00,52.0,48.0,-100.00,NW,305,3.0,5.0,86,0.00,,,0.26,0.000000,,2013-05-29 06:11:00,
2013-05-29 00:21:00,52.0,48.0,-100.00,NW,305,3.0,5.0,86,0.00,,,0.26,0.000000,,2013-05-29 06:21:00,
2013-05-29 00:30:00,51.0,48.0,-100.00,NW,311,6.0,8.0,89,0.00,,,0.26,0.000000,,2013-05-29 06:30:00,
2013-05-29 00:52:00,51.0,48.0,-100.00,NW,311,6.0,8.0,89,0.00,,,0.26,0.000000,,2013-05-29 06:52:00,
2013-05-29 01:01:00,51.0,48.0,-100.00,NW,311,6.0,8.0,89,0.00,,,0.26,0.000000,,2013-05-29 07:01:00,
2013-05-29 01:11:00,51.0,48.0,-100.00,NW,311,6.0,8.0,89,0.00,,,0.26,0.000000,,2013-05-29 07:11:00,
2013-05-29 01:21:00,51.0,48.0,-100.00,NW,311,6.0,8.0,89,0.00,,,0.26,0.000000,,2013-05-29 07:21:00,
2013-05-29 01:30:00,51.0,48.0,-100.00,SW,230,3.0,7.0,90,0.00,,,0.26,0.000000,,2013-05-29 07:30:00,
2013-05-29 01:52:00,51.0,48.0,-100.00,SW,230,3.0,7.0,90,0.00,,,0.26,0.000000,,2013-05-29 07:52:00,
2013-05-29 02:02:00,51.0,48.0,-100.00,SW,230,3.0,7.0,90,0.00,,,0.26,0.000000,,2013-05-29 08:02:00,
2013-05-29 02:11:00,51.0,48.0,-100.00,SW,230,3.0,7.0,90,0.00,,,0.26,0.000000,,2013-05-29 08:11:00,
2013-05-29 02:21:00,51.0,48.0,-100.00,SW,230,3.0,7.0,90,0.00,,,0.26,0.000000,,2013-05-29 08:21:00,
2013-05-29 02:30:00,51.0,48.0,-100.00,WNW,292,4.0,6.0,91,0.00,,,0.26,0.000000,,2013-05-29 08:30:00,
2013-05-29 02:52:00,51.0,48.0,-100.00,WNW,292,4.0,6.0,91,0.00,,,0.26,0.000000,,2013-05-29 08:52:00,
2013-05-29 03:01:00,51.0,48.0,-100.00,WNW,292,4.0,6.0,91,0.00,,,0.26,0.000000,,2013-05-29 09:01:00,
2013-05-29 03:11:00,51.0,48.0,-100.00,WNW,292,4.0,6.0,91,0.00,,,0.26,0.000000,,2013-05-29 09:11:00,
2013-05-29 03:21:00,51.0,48.0,-100.00,WNW,292,4.0,6.0,91,0.00,,,0.26,0.000000,,2013-05-29 09:21:00,
2013-05-29 03:30:00,51.0,48.0,-100.00,WNW,299,5.0,7.0,91,0.00,,,0.26,0.000000,,2013-05-29 09:30:00,
2013-05-29 03:52:00,51.0,48.0,-100.00,WNW,299,5.0,7.0,91,0.00,,,0.26,0.000000,,2013-05-29 09:52:00,
2013-05-29 04:02:00,51.0,48.0,-100.00,WNW,299,5.0,7.0,91,0.00,,,0.26,0.000000,,2013-05-29 10:02:00,
2013-05-29 04:12:00,51.0,48.0,-100.00,WNW,299,5.0,7.0,91,0.00,,,0.26,0.000000,,2013-05-29 10:12:00,
2013-05-29 04:22:00,51.0,48.0,-100.00,WNW,299,5.0,7.0,91,0.00,,,0.26,0.000000,,2013-05-29 10:22:00,
2013-05-29 04:30:00,50.0,48.0,-100.00,West,279,4.0,7.0,93,0.00,,,0.26,0.000000,,2013-05-29 10:30:00,
2013-05-29 04:53:00,50.0,48.0,-100.00,West,279,4.0,7.0,93,0.00,,,0.26,0.000000,,2013-05-29 10:53:00,
2013-05-29 05:02:00,50.0,48.0,-100.00,West,279,4.0,7.0,93,0.00,,,0.26,0.000000,,2013-05-29 11:02:00,
2013-05-29 05:11:00,50.0,48.0,-100.00,West,279,4.0,7.0,93,0.00,,,0.26,0.000000,,2013-05-29 11:11:00,
2013-05-29 05:21:00,50.0,48.0,-100.00,West,279,4.0,7.0,93,0.00,,,0.26,0.000000,,2013-05-29 11:21:00,
2013-05-29 05:30:00,49.0,48.0,-100.00,West,276,3.0,6.0,95,0.00,,,0.26,0.000000,,2013-05-29 11:30:00,
2013-05-29 05:52:00,49.0,48.0,-100.00,West,276,3.0,6.0,95,0.00,,,0.26,0.000000,,2013-05-29 11:52:00,
2013-05-29 06:01:00,49.0,48.0,-100.00,West,276,3.0,6.0,95,0.00,,,0.26,0.000000,,2013-05-29 12:01:00,
2013-05-29 06:11:00,49.0,48.0,-100.00,West,276,3.0,6.0,95,0.00,,,0.26,0.000000,,2013-05-29 12:11:00,
2013-05-29 06:21:00,49.0,48.0,-100.00,West,276,3.0,6.0,95,0.00,,,0.26,0.000000,,2013-05-29 12:21:00,
2013-05-29 06:30:00,49.0,48.0,-100.00,WSW,246,4.0,6.0,95,0.00,,,0.26,4.000000,,2013-05-29 12:30:00,
2013-05-29 06:52:00,49.0,48.0,-100.00,WSW,246,4.0,6.0,95,0.00,,,0.26,4.000000,,2013-05-29 12:52:00,
2013-05-29 07:01:00,49.0,48.0,-100.00,WSW,246,4.0,6.0,95,0.00,,,0.26,4.000000,,2013-05-29 13:01:00,
2013-05-29 07:11:00,49.0,48.0,-100.00,WSW,246,4.0,6.0,95,0.00,,,0.26,4.000000,,2013-05-29 13:11:00,
2013-05-29 07:21:00,49.0,48.0,-100.00,WSW,246,4.0,6.0,95,0.00,,,0.26,4.000000,,2013-05-29 13:21:00,
2013-05-29 07:30:00,50.0,48.0,-100.00,West,261,4.0,5.0,93,0.00,,,0.25,34.000000,,2013-05-29 13:30:00,
2013-05-29 07:53:00,50.0,48.0,-100.00,West,261,4.0,5.0,93,0.00,,,0.25,34.000000,,2013-05-29 13:53:00,
2013-05-29 08:02:00,50.0,48.0,-100.00,West,261,4.0,5.0,93,0.00,,,0.25,34.000000,,2013-05-29 14:02:00,
2013-05-29 08:11:00,50.0,48.0,-100.00,West,261,4.0,5.0,93,0.00,,,0.25,34.000000,,2013-05-29 14:11:00,
2013-05-29 08:21:00,50.0,48.0,-100.00,West,261,4.0,5.0,93,0.00,,,0.25,34.000000,,2013-05-29 14:21:00,
2013-05-29 08:30:00,54.0,48.0,-100.00,WNW,295,6.0,7.0,81,0.00,,,0.21,223.000000,,2013-05-29 14:30:00,
2013-05-29 08:52:00,54.0,48.0,-100.00,WNW,295,6.0,7.0,81,0.00,,,0.21,223.000000,,2013-05-29 14:52:00,
2013-05-29 09:01:00,54.0,48.0,-100.00,WNW,295,6.0,7.0,81,0.00,,,0.21,223.000000,,2013-05-29 15:01:00,
2013-05-29 09:11:00,54.0,48.0,-100.00,WNW,295,6.0,7.0,81,0.00,,,0.21,223.000000,,2013-05-29 15:11:00,
2013-05-29 09:21:00,54.0,48.0,-100.00,WNW,295,6.0,7.0,81,0.00,,,0.21,223.000000,,2013-05-29 15:21:00,
2013-05-29 09:30:00,57.0,47.0,-100.00,WNW,300,4.0,7.0,70,0.00,,,0.16,307.000000,,2013-05-29 15:30:00,
2013-05-29 09:53:00,57.0,47.0,-100.00,WNW,300,4.0,7.0,70,0.00,,,0.16,307.000000,,2013-05-29 15:53:00,
2013-05-29 10:03:00,57.0,47.0,-100.00,WNW,300,4.0,7.0,70,0.00,,,0.16,307.000000,,2013-05-29 16:03:00,
2013-05-29 10:12:00,57.0,47.0,-100.00,WNW,300,4.0,7.0,70,0.00,,,0.16,307.000000,,2013-05-29 16:12:00,
2013-05-29 10:22:00,57.0,47.0,-100.00,WNW,300,4.0,7.0,70,0.00,,,0.16,307.000000,,2013-05-29 16:22:00,
2013-05-29 10:30:00,60.0,46.0,-100.00,SW,228,4.0,10.0,59,0.00,,,0.09,703.000000,,2013-05-29 16:30:00,
2013-05-29 10:52:00,60.0,46.0,-100.00,SW,228,4.0,10.0,59,0.00,,,0.09,703.000000,,2013-05-29 16:52:00,
2013-05-29 11:02:00,60.0,46.0,-100.00,SW,228,4.0,10.0,59,0.00,,,0.09,703.000000,,2013-05-29 17:02:00,
2013-05-29 11:12:00,60.0,46.0,-100.00,SW,228,4.0,10.0,59,0.00,,,0.09,703.000000,,2013-05-29 17:12:00,
2013-05-29 11:22:00,60.0,46.0,-100.00,SW,228,4.0,10.0,59,0.00,,,0.09,703.000000,,2013-05-29 17:22:00,
2013-05-29 11:30:00,64.0,47.0,-100.00,SSE,167,3.0,9.0,54,0.00,,,0.07,544.000000,,2013-05-29 17:30:00,
2013-05-29 11:52:00,64.0,47.0,-100.00,SSE,167,3.0,9.0,54,0.00,,,0.07,544.000000,,2013-05-29 17:52:00,
2013-05-29 12:01:00,64.0,47.0,-100.00,SSE,167,3.0,9.0,54,0.00,,,0.07,544.000000,,2013-05-29 18:01:00,
2013-05-29 12:13:00,64.0,47.0,-100.00,SSE,167,3.0,9.0,54,0.00,,,0.07,544.000000,,2013-05-29 18:13:00,
2013-05-29 12:22:00,64.0,47.0,-100.00,SSE,167,3.0,9.0,54,0.00,,,0.07,544.000000,,2013-05-29 18:22:00,
2013-05-29 12:30:00,65.0,47.0,-100.00,ESE,116,4.0,9.0,52,0.00,,,0.05,806.000000,,2013-05-29 18:30:00,
2013-05-29 12:52:00,65.0,47.0,-100.00,ESE,116,4.0,9.0,52,0.00,,,0.05,806.000000,,2013-05-29 18:52:00,
2013-05-29 13:01:00,65.0,47.0,-100.00,ESE,116,4.0,9.0,52,0.00,,,0.05,806.000000,,2013-05-29 19:01:00,
2013-05-29 13:11:00,65.0,47.0,-100.00,ESE,116,4.0,9.0,52,0.00,,,0.05,806.000000,,2013-05-29 19:11:00,
2013-05-29 13:21:00,65.0,47.0,-100.00,ESE,116,4.0,9.0,52,0.00,,,0.05,806.000000,,2013-05-29 19:21:00,
2013-05-29 13:30:00,61.0,48.0,-100.00,ENE,76,10.0,15.0,62,0.00,,,0.04,510.000000,,2013-05-29 19:30:00,
2013-05-29 13:53:00,61.0,48.0,-100.00,ENE,76,10.0,15.0,62,0.00,,,0.04,510.000000,,2013-05-29 19:53:00,
2013-05-29 14:02:00,61.0,48.0,-100.00,ENE,76,10.0,15.0,62,0.00,,,0.04,510.000000,,2013-05-29 20:02:00,
2013-05-29 14:11:00,61.0,48.0,-100.00,ENE,76,10.0,15.0,62,0.00,,,0.04,510.000000,,2013-05-29 20:11:00,
2013-05-29 14:22:00,61.0,48.0,-100.00,ENE,76,10.0,15.0,62,0.00,,,0.04,510.000000,,2013-05-29 20:22:00,
2013-05-29 14:30:00,62.0,49.0,-100.00,ENE,71,9.0,15.0,63,0.00,,,0.04,845.000000,,2013-05-29 20:30:00,
2013-05-29 14:52:00,62.0,49.0,-100.00,ENE,71,9.0,15.0,63,0.00,,,0.04,845.000000,,2013-05-29 20:52:00,
2013-05-29 15:02:00,62.0,49.0,-100.00,ENE,71,9.0,15.0,63,0.00,,,0.04,845.000000,,2013-05-29 21:02:00,
2013-05-29 15:12:00,62.0,49.0,-100.00,ENE,71,9.0,15.0,63,0.00,,,0.04,845.000000,,2013-05-29 21:12:00,
2013-05-29 15:22:00,62.0,49.0,-100.00,ENE,71,9.0,15.0,63,0.00,,,0.04,845.000000,,2013-05-29 21:22:00,
2013-05-29 15:30:00,60.0,45.0,-100.00,ENE,70,11.0,15.0,57,0.00,,,0.04,510.000000,,2013-05-29 21:30:00,
2013-05-29 15:53:00,60.0,45.0,-100.00,ENE,70,11.0,15.0,57,0.00,,,0.04,510.000000,,2013-05-29 21:53:00,
2013-05-29 16:03:00,60.0,45.0,-100.00,ENE,70,11.0,15.0,57,0.00,,,0.04,510.000000,,2013-05-29 22:03:00,
2013-05-29 16:12:00,60.0,45.0,-100.00,ENE,70,11.0,15.0,57,0.00,,,0.04,510.000000,,2013-05-29 22:12:00,
2013-05-29 16:23:00,60.0,45.0,-100.00,ENE,70,11.0,15.0,57,0.00,,,0.04,510.000000,,2013-05-29 22:23:00,
2013-05-29 16:30:00,62.0,45.0,-100.00,ENE,62,11.0,19.0,53,0.00,,,0.04,333.000000,,2013-05-29 22:30:00,
2013-05-29 16:53:00,62.0,45.0,-100.00,ENE,62,11.0,19.0,53,0.00,,,0.04,333.000000,,2013-05-29 22:53:00,
2013-05-29 17:02:00,62.0,45.0,-100.00,ENE,62,11.0,19.0,53,0.00,,,0.04,333.000000,,2013-05-29 23:02:00,
2013-05-29 17:12:00,62.0,45.0,-100.00,ENE,62,11.0,19.0,53,0.00,,,0.04,333.000000,,2013-05-29 23:12:00,
2013-05-29 17:21:00,62.0,45.0,-100.00,ENE,62,11.0,19.0,53,0.00,,,0.04,333.000000,,2013-05-29 23:21:00,
2013-05-29 17:30:00,62.0,46.0,-100.00,ENE,66,13.0,20.0,56,0.00,,,0.04,745.000000,,2013-05-29 23:30:00,
2013-05-29 17:53:00,62.0,46.0,-100.00,ENE,66,13.0,20.0,56,0.00,,,0.04,745.000000,,2013-05-29 23:53:00,
2013-05-29 18:01:00,62.0,46.0,-100.00,ENE,66,13.0,20.0,56,0.00,,,0.04,745.000000,,2013-05-30 00:01:00,
2013-05-29 18:11:00,62.0,46.0,-100.00,ENE,66,13.0,20.0,56,0.00,,,0.04,745.000000,,2013-05-30 00:11:00,
2013-05-29 18:21:00,62.0,46.0,-100.00,ENE,66,13.0,20.0,56,0.00,,,0.04,745.000000,,2013-05-30 00:21:00,
2013-05-29 18:30:00,59.0,47.0,-100.00,ENE,63,11.0,19.0,65,0.00,,,0.01,389.000000,,2013-05-30 00:30:00,
2013-05-29 18:52:00,59.0,47.0,-100.00,ENE,63,11.0,19.0,65,0.00,,,0.01,389.000000,,2013-05-30 00:52:00,
2013-05-29 19:01:00,59.0,47.0,-100.00,ENE,63,11.0,19.0,65,0.00,,,0.01,389.000000,,2013-05-30 01:01:00,
2013-05-29 19:11:00,59.0,47.0,-100.00,ENE,63,11.0,19.0,65,0.00,,,0.01,389.000000,,2013-05-30 01:11:00,
2013-05-29 19:21:00,59.0,47.0,-100.00,ENE,63,11.0,19.0,65,0.00,,,0.01,389.000000,,2013-05-30 01:21:00,
2013-05-29 19:30:00,58.0,46.0,-100.00,East,91,9.0,14.0,64,0.00,,,0.01,140.000000,,2013-05-30 01:30:00,
2013-05-29 19:52:00,58.0,46.0,-100.00,East,91,9.0,14.0,64,0.00,,,0.01,140.000000,,2013-05-30 01:52:00,
2013-05-29 20:01:00,58.0,46.0,-100.00,East,91,9.0,14.0,64,0.00,,,0.01,140.000000,,2013-05-30 02:01:00,
2013-05-29 20:11:00,58.0,46.0,-100.00,East,91,9.0,14.0,64,0.00,,,0.01,140.000000,,2013-05-30 02:11:00,
2013-05-29 20:21:00,58.0,46.0,-100.00,East,91,9.0,14.0,64,0.00,,,0.01,140.000000,,2013-05-30 02:21:00,
2013-05-29 20:30:00,56.0,44.0,-100.00,NW,314,9.0,15.0,65,0.00,,,0.01,47.000000,,2013-05-30 02:30:00,
2013-05-29 21:01:00,56.0,44.0,-100.00,NW,314,9.0,15.0,65,0.00,,,0.01,47.000000,,2013-05-30 03:01:00,
2013-05-29 21:11:00,56.0,44.0,-100.00,NW,314,9.0,15.0,65,0.00,,,0.01,47.000000,,2013-05-30 03:11:00,
2013-05-29 21:21:00,56.0,44.0,-100.00,NW,314,9.0,15.0,65,0.00,,,0.01,47.000000,,2013-05-30 03:21:00,
2013-05-29 21:30:00,53.0,42.0,-100.00,NW,314,8.0,18.0,66,0.00,,,0.01,11.000000,,2013-05-30 03:30:00,
2013-05-29 21:53:00,53.0,42.0,-100.00,NW,314,8.0,18.0,66,0.00,,,0.01,11.000000,,2013-05-30 03:53:00,
2013-05-29 22:02:00,53.0,42.0,-100.00,NW,314,8.0,18.0,66,0.00,,,0.01,11.000000,,2013-05-30 04:02:00,
2013-05-29 22:12:00,53.0,42.0,-100.00,NW,314,8.0,18.0,66,0.00,,,0.01,11.000000,,2013-05-30 04:12:00,
2013-05-29 22:23:00,53.0,42.0,-100.00,NW,314,8.0,18.0,66,0.00,,,0.01,11.000000,,2013-05-30 04:23:00,
2013-05-29 22:30:00,48.0,40.0,-100.00,NW,307,4.0,15.0,75,0.00,,,0.00,0.000000,,2013-05-30 04:30:00,
2013-05-29 22:53:00,48.0,40.0,-100.00,NW,307,4.0,15.0,75,0.00,,,0.00,0.000000,,2013-05-30 04:53:00,
2013-05-29 23:02:00,48.0,40.0,-100.00,NW,307,4.0,15.0,75,0.00,,,0.00,0.000000,,2013-05-30 05:02:00,
2013-05-29 23:12:00,48.0,40.0,-100.00,NW,307,4.0,15.0,75,0.00,,,0.00,0.000000,,2013-05-30 05:12:00,
2013-05-29 23:21:00,48.0,40.0,-100.00,NW,307,4.0,15.0,75,0.00,,,0.00,0.000000,,2013-05-30 05:21:00,
2013-05-29 23:30:00,50.0,46.0,-100.00,WSW,256,5.0,7.0,85,0.00,,,0.00,0.000000,,2013-05-30 05:30:00,
2013-05-29 23:52:00,50.0,46.0,-100.00,WSW,256,5.0,7.0,85,0.00,,,0.00,0.000000,,2013-05-30 05:52:00,